Torna al catalogo

CZ-4 DEB

AttivoPO
NORAD 26129·DEBRIS·🇨🇳 China

Lanciato Oct 14, 1999 da Taiyuan Satellite Launch Center

Loading…

Prossimi Passaggi (prossime 24 ore)

TLE

AggiornatoSource: Space-Track

Epoca: Sep 13, 2026, 23:11 UTC

1 26129U 99057R   26256.96663298  .00000603  00000-0  44913-3 0  9993
2 26129  99.0094  75.7130 0435203 280.6773  74.5661 13.61427771310312

Traccia CZ-4 DEB in tempo reale con AllMySat

Download on the App Store